Temp
-21 -21 -21 -21 -20 -19 -20 -20 -21 -19 -20 -17 -17 -18 -18 -18 -18 -17 -16 -16 -16 -16 -16 -16 -18 -18 -18 -17 -18 -18 -17 -18 -18 -19 -19 -19 -19 -19 -20 -20 -20 -20 -20 -21
-23 -22 -24 -24 -21 -20 -22 -22 -22 -22 -22 -19 -18 -18 -18 -19 -19 -18 -17 -18 -18 -17 -17 -17 -18 -19 -18 -18 -18 -17 -18 -18 -19 -19 -19 -19 -19 -20 -20 -20 -20 -21 -21 -21
-23 -23 -24 -24 -22 -23 -23 -23 -23 -23 -23 -21 -20 -19 -19 -19 -19 -18 -18 -20 -18 -18 -19 -19 -19 -19 -18 -18 -18 -18 -18 -18 -19 -20 -19 -20 -20 -20 -20 -20 -21 -21 -22 -22
-25 -24 -25 -23 -23 -23 -23 -23 -22 -23 -22 -22 -22 -21 -21 -20 -19 -19 -19 -19 -19 -19 -18 -18 -19 -18 -18 -18 -18 -18 -19 -19 -19 -20 -20 -20 -21 -20 -20 -22 -22 -22 -22 -22
-26 -25 -25 -24 -23 -23 -24 -24 -23 -24 -23 -23 -23 -23 -21 -21 -21 -20 -19 -20 -20 -19 -19 -19 -19 -20 -20 -19 -19 -19 -20 -20 -20 -20 -20 -20 -20 -21 -22 -22 -22 -22 -22 -22
-28 -27 -27 -24 -24 -24 -25 -26 -24 -25 -25 -24 -25 -25 -23 -23 -23 -23 -21 -21 -22 -22 -21 -20 -20 -21 -20 -20 -20 -19 -20 -20 -20 -20 -20 -20 -21 -22 -22 -22 -22 -22 -23 -22
-29 -29 -28 -27 -25 -27 -27 -25 -26 -26 -26 -25 -25 -25 -25 -25 -25 -24 -23 -23 -22 -22 -21 -21 -21 -21 -20 -20 -20 -20 -20 -20 -21 -21 -21 -22 -22 -22 -22 -23 -23 -23 -23 -24
-29 -29 -29 -28 -28 -28 -27 -27 -27 -26 -26 -26 -26 -25 -25 -25 -24 -24 -23 -23 -23 -22 -22 -22 -21 -20 -21 -21 -21 -21 -21 -21 -21 -22 -22 -23 -23 -23 -23 -23 -23 -23 -24 -24
-30 -29 -28 -28 -28 -28 -28 -27 -27 -27 -26 -26 -26 -25 -25 -25 -25 -24 -24 -23 -23 -23 -23 -23 -22 -22 -22 -22 -22 -22 -22 -23 -23 -23 -23 -23 -23 -23 -23 -23 -24 -24 -24 -24
-30 -28 -29 -28 -28 -28 -28 -27 -27 -27 -26 -26 -26 -26 -26 -26 -25 -25 -24 -24 -24 -23 -23 -23 -23 -24 -23 -23 -23 -23 -24 -24 -23 -23 -23 -24 -24 -23 -23 -23 -24 -24 -25 -25
-30 -28 -29 -28 -28 -28 -28 -28 -27 -27 -26 -26 -26 -26 -25 -25 -25 -25 -25 -25 -24 -24 -24 -24 -24 -23 -23 -23 -23 -23 -24 -24 -23 -24 -24 -24 -23 -24 -24 -24 -25 -25 -25 -25
-29 -28 -28 -28 -28 -28 -27 -28 -27 -27 -27 -26 -26 -25 -26 -26 -26 -25 -25 -25 -24 -24 -23 -23 -23 -23 -23 -24 -24 -24 -24 -24 -24 -24 -24 -24 -25 -25 -25 -25 -25 -25 -25 -26
-28 -29 -28 -28 -28 -28 -28 -27 -27 -27 -27 -26 -27 -26 -26 -26 -26 -25 -25 -25 -25 -24 -24 -24 -23 -23 -24 -25 -25 -25 -25 -25 -25 -25 -25 -25 -25 -26 -25 -25 -25 -26 -26 -26
-29 -28 -28 -28 -28 -28 -28 -27 -27 -27 -27 -27 -27 -26 -26 -26 -26 -26 -26 -26 -26 -25 -25 -25 -25 -25 -25 -25 -25 -25 -25 -25 -25 -25 -26 -26 -25 -25 -25 -26 -26 -26 -27 -27
-28 -28 -28 -28 -28 -28 -28 -28 -27 -27 -27 -27 -27 -26 -26 -26 -26 -26 -26 -26 -26 -26 -26 -26 -26 -26 -26 -26 -26 -25 -26 -26 -26 -26 -26 -25 -25 -26 -26 -26 -27 -27 -27 -27
-28 -28 -28 -28 -28 -28 -28 -28 -28 -27 -27 -27 -26 -26 -26 -26 -26 -26 -26 -26 -26 -26 -26 -26 -26 -26 -26 -26 -26 -26 -26 -26 -26 -25 -26 -26 -26 -26 -27 -27 -27 -27 -27 -28
-27 -28 -28 -28 -27 -28 -28 -29 -28 -27 -27 -27 -27 -26 -26 -26 -25 -26 -26 -26 -26 -26 -26 -26 -26 -26 -26 -27 -26 -26 -26 -26 -26 -26 -26 -26 -27 -27 -27 -27 -27 -27 -28 -29
-27 -27 -27 -27 -28 -28 -27 -27 -27 -27 -27 -27 -27 -26 -26 -26 -26 -26 -25 -26 -26 -26 -26 -26 -26 -26 -26 -26 -26 -26 -26 -26 -26 -27 -27 -27 -27 -27 -27 -27 -28 -29 -30 -31
-27 -27 -26 -27 -27 -27 -27 -27 -27 -27 -26 -26 -26 -26 -26 -26 -26 -26 -26 -25 -26 -26 -26 -26 -26 -26 -27 -27 -27 -27 -27 -27 -27 -27 -27 -27 -27 -27 -27 -28 -29 -31 -32 -33
-26 -26 -26 -26 -26 -27 -27 -27 -26 -26 -26 -26 -26 -26 -26 -26 -26 -26 -26 -26 -26 -26 -27 -27 -27 -27 -27 -27 -27 -27 -27 -27 -27 -27 -27 -27 -27 -27 -28 -29 -31 -32 -33 -34
-26 -26 -26 -26 -26 -26 -26 -26 -26 -26 -26 -27 -26 -27 -26 -26 -26 -26 -26 -27 -27 -27 -27 -27 -27 -27 -27 -27 -27 -27 -28 -28 -28 -27 -28 -28 -28 -28 -29 -31 -32 -33 -34 -34
-26 -26 -26 -26 -26 -26 -26 -26 -26 -26 -26 -27 -26 -26 -26 -26 -27 -27 -27 -27 -27 -27 -27 -27 -27 -27 -27 -28 -28 -28 -28 -28 -28 -28 -28 -28 -28 -29 -31 -32 -33 -33 -34 -34
-26 -26 -26 -26 -26 -26 -26 -26 -26 -26 -26 -26 -26 -27 -27 -27 -27 -27 -27 -27 -27 -27 -27 -27 -27 -27 -28 -28 -28 -28 -28 -28 -28 -28 -28 -29 -29 -31 -32 -32 -33 -34 -34 -34
-26 -26 -26 -26 -26 -26 -26 -26 -26 -26 -26 -27 -27 -27 -27 -27 -27 -27 -27 -27 -27 -27 -27 -27 -28 -28 -28 -29 -29 -29 -29 -29 -29 -29 -29 -29 -30 -31 -32 -33 -33 -34 -34 -34
-26 -26 -26 -26 -26 -26 -26 -26 -27 -27 -27 -27 -27 -27 -27 -27 -27 -27 -27 -27 -27 -28 -28 -28 -28 -29 -29 -29 -29 -29 -29 -29 -29 -29 -30 -30 -31 -32 -33 -33 -34 -34 -34 -34
-26 -26 -26 -26 -26 -26 -26 -26 -27 -27 -27 -27 -27 -27 -27 -27 -28 -28 -28 -28 -28 -28 -28 -29 -29 -29 -30 -30 -30 -30 -30 -30 -30 -30 -31 -31 -32 -33 -33 -34 -34 -34 -34 -33
-26 -26 -26 -26 -26 -26 -27 -27 -27 -27 -27 -28 -28 -28 -28 -28 -28 -28 -28 -28 -28 -29 -29 -29 -29 -30 -30 -30 -31 -31 -31 -31 -31 -31 -32 -33 -33 -34 -34 -34 -34 -34 -34 -34
Height
5560 5558 5558 5561 5566 5572 5570 5570 5563 5573 5567 5582 5585 5583 5579 5583 5583 5584 5585 5587 5589 5592 5594 5595 5597 5599 5600 5600 5600 5598 5598 5597 5597 5593 5591 5589 5586 5583 5581 5579 5575 5571 5568 5564
5543 5547 5537 5538 5551 5562 5554 5553 5550 5552 5547 5566 5569 5568 5566 5566 5563 5570 5573 5572 5572 5575 5580 5583 5583 5583 5584 5585 5586 5584 5583 5582 5581 5579 5577 5576 5573 5570 5568 5564 5562 5559 5555 5551
5529 5537 5522 5523 5545 5538 5541 5544 5541 5533 5540 5548 5549 5552 5553 5543 5549 5554 5554 5554 5557 5563 5565 5566 5567 5568 5570 5570 5570 5569 5570 5569 5568 5566 5564 5562 5560 5557 5553 5549 5547 5547 5544 5542
5512 5518 5505 5520 5527 5529 5522 5523 5526 5524 5530 5534 5536 5539 5534 5539 5536 5532 5538 5539 5542 5543 5547 5550 5548 5549 5553 5554 5553 5553 5553 5554 5553 5552 5552 5551 5547 5543 5539 5537 5535 5534 5532 5528
5494 5498 5493 5504 5516 5514 5505 5503 5511 5508 5510 5515 5517 5513 5524 5530 5516 5522 5520 5517 5521 5527 5530 5531 5533 5534 5537 5539 5539 5538 5541 5541 5542 5542 5541 5538 5533 5529 5528 5527 5524 5523 5520 5515
5486 5481 5479 5495 5508 5501 5488 5480 5499 5495 5495 5496 5496 5496 5508 5507 5502 5505 5506 5504 5509 5511 5513 5517 5518 5520 5523 5525 5526 5528 5529 5529 5529 5531 5527 5522 5519 5519 5519 5516 5513 5510 5506 5501
5473 5470 5466 5481 5491 5482 5475 5485 5483 5484 5486 5486 5486 5486 5491 5491 5491 5490 5492 5493 5499 5500 5502 5504 5506 5506 5511 5514 5513 5513 5515 5516 5516 5514 5514 5512 5510 5508 5507 5505 5502 5498 5492 5488
5463 5459 5458 5474 5469 5467 5473 5468 5474 5476 5476 5475 5477 5478 5477 5478 5479 5481 5482 5482 5484 5487 5489 5491 5493 5497 5501 5500 5500 5502 5503 5503 5500 5501 5502 5503 5500 5498 5497 5494 5490 5485 5480 5474
5449 5450 5458 5460 5457 5458 5457 5458 5463 5465 5467 5466 5467 5470 5468 5469 5470 5471 5472 5473 5475 5477 5480 5483 5486 5487 5489 5489 5490 5489 5490 5490 5492 5492 5491 5492 5489 5488 5486 5481 5476 5471 5468 5465
5439 5446 5447 5449 5449 5450 5451 5451 5451 5453 5457 5457 5458 5460 5461 5462 5463 5464 5465 5466 5467 5468 5471 5473 5474 5476 5478 5479 5480 5482 5482 5482 5482 5482 5481 5481 5480 5478 5474 5469 5464 5462 5457 5452
5427 5436 5438 5440 5441 5442 5444 5445 5445 5445 5447 5448 5449 5450 5451 5452 5454 5455 5458 5459 5460 5460 5462 5463 5465 5468 5469 5471 5472 5472 5473 5473 5474 5473 5473 5471 5470 5466 5462 5458 5455 5450 5444 5438
5423 5428 5429 5432 5432 5433 5435 5437 5438 5438 5440 5439 5439 5440 5441 5443 5444 5447 5449 5451 5453 5452 5453 5455 5456 5458 5459 5461 5462 5463 5465 5466 5465 5464 5463 5461 5458 5453 5450 5447 5443 5437 5432 5426
5418 5419 5423 5425 5427 5427 5427 5428 5429 5429 5430 5430 5430 5430 5431 5433 5434 5437 5439 5442 5444 5445 5445 5447 5448 5449 5450 5451 5453 5453 5454 5454 5453 5452 5451 5448 5445 5442 5439 5435 5430 5425 5419 5413
5413 5413 5415 5417 5418 5419 5420 5421 5421 5422 5422 5422 5423 5423 5425 5424 5424 5425 5428 5431 5434 5436 5436 5438 5439 5441 5442 5443 5444 5444 5444 5443 5441 5441 5440 5438 5435 5431 5428 5424 5419 5412 5406 5400
5406 5405 5405 5409 5410 5411 5412 5413 5414 5414 5415 5415 5416 5416 5416 5416 5417 5417 5420 5423 5425 5427 5429 5431 5431 5433 5434 5434 5434 5434 5433 5433 5433 5432 5430 5427 5424 5421 5417 5412 5407 5401 5393 5386
5396 5395 5397 5396 5396 5397 5398 5401 5403 5405 5407 5408 5409 5409 5409 5411 5411 5412 5413 5415 5416 5419 5421 5424 5427 5427 5427 5426 5426 5426 5426 5426 5424 5422 5420 5418 5415 5410 5405 5401 5395 5388 5379 5371
5385 5387 5385 5383 5383 5384 5386 5388 5392 5397 5399 5401 5402 5402 5404 5405 5405 5406 5407 5409 5411 5413 5416 5418 5419 5420 5420 5420 5420 5419 5418 5416 5415 5414 5412 5408 5403 5399 5395 5389 5381 5373 5364 5356
5377 5376 5376 5375 5375 5376 5380 5384 5388 5391 5393 5395 5396 5397 5398 5399 5400 5401 5402 5404 5406 5408 5409 5411 5413 5413 5414 5413 5413 5412 5411 5409 5407 5405 5402 5398 5394 5389 5382 5375 5367 5357 5348 5340
5367 5368 5371 5372 5372 5376 5380 5383 5385 5387 5389 5391 5392 5393 5394 5394 5395 5397 5399 5401 5403 5404 5406 5406 5407 5408 5408 5408 5407 5405 5403 5401 5399 5396 5392 5388 5383 5377 5369 5359 5350 5341 5334 5327
5364 5363 5365 5369 5373 5376 5379 5380 5382 5384 5385 5386 5387 5388 5390 5392 5394 5396 5397 5398 5399 5400 5401 5402 5402 5402 5402 5400 5399 5397 5395 5393 5390 5387 5382 5377 5370 5362 5353 5344 5335 5328 5322 5316
5363 5362 5364 5369 5372 5375 5377 5378 5380 5381 5382 5383 5384 5387 5389 5391 5392 5393 5394 5395 5396 5396 5397 5397 5397 5396 5395 5394 5392 5390 5387 5384 5381 5377 5371 5364 5356 5347 5337 5329 5322 5316 5311 5305
5367 5366 5368 5370 5373 5374 5376 5377 5377 5379 5379 5381 5384 5386 5388 5389 5389 5390 5391 5392 5392 5393 5393 5392 5391 5390 5388 5386 5384 5382 5379 5375 5371 5365 5358 5351 5342 5333 5324 5317 5311 5306 5300 5295
5369 5369 5370 5371 5372 5373 5374 5375 5376 5378 5379 5381 5383 5384 5385 5386 5387 5388 5389 5389 5389 5389 5388 5386 5385 5383 5381 5378 5376 5373 5369 5365 5360 5353 5345 5337 5329 5321 5313 5307 5300 5295 5290 5285
5369 5369 5369 5370 5371 5371 5372 5374 5376 5377 5379 5380 5381 5382 5383 5384 5385 5385 5385 5384 5384 5383 5381 5379 5377 5375 5372 5370 5367 5364 5360 5355 5349 5341 5334 5325 5317 5309 5303 5297 5291 5286 5280 5273
5368 5368 5368 5369 5370 5370 5372 5373 5375 5376 5377 5378 5379 5379 5380 5380 5381 5380 5379 5379 5378 5376 5374 5371 5369 5366 5364 5362 5358 5354 5349 5344 5337 5330 5322 5313 5305 5299 5293 5288 5282 5275 5269 5262
5365 5365 5366 5367 5367 5368 5369 5370 5371 5372 5373 5374 5374 5375 5375 5375 5375 5374 5373 5372 5370 5368 5366 5364 5361 5358 5356 5352 5348 5344 5338 5332 5325 5318 5310 5302 5295 5289 5283 5277 5271 5264 5257 5250
5361 5361 5361 5362 5362 5363 5364 5365 5367 5368 5368 5369 5370 5370 5370 5370 5369 5368 5366 5365 5363 5361 5358 5356 5353 5350 5347 5343 5339 5334 5328 5321 5314 5306 5298 5291 5285 5279 5273 5266 5259 5252 5245 5238
Wind_Speed
64 64 62 62 63 63 58 57 57 57 56 64 63 66 67 66 67 67 69 69 67 59 59 58 53 51 50 52 56 52 57 51 54 57 62 62 57 56 51 52 53 55 57 54
62 62 60 61 63 65 59 59 60 61 65 65 66 64 63 65 69 69 69 70 71 67 62 61 59 57 56 57 59 55 59 59 55 55 59 62 56 51 50 56 59 58 55 52
61 55 62 63 58 58 59 55 56 62 63 65 66 67 68 76 72 72 74 67 72 67 62 57 55 54 59 62 64 66 65 62 52 53 56 52 52 50 59 59 58 54 50 50
61 61 67 61 59 60 64 66 66 65 64 62 63 64 67 67 75 79 75 70 60 61 68 62 52 57 65 66 62 59 55 51 56 56 50 51 49 57 59 48 47 50 49 52
59 64 66 65 59 61 64 66 62 62 61 59 59 64 61 59 71 74 78 80 80 79 69 65 61 56 49 49 48 48 48 48 49 49 47 49 60 54 44 43 45 49 51 56
54 58 62 60 55 58 53 59 53 42 40 42 44 51 50 58 61 64 67 69 53 38 44 45 41 35 37 39 43 47 47 43 47 55 51 62 51 46 48 47 49 52 56 56
48 52 56 52 49 49 54 50 45 42 34 38 38 40 38 36 40 43 40 44 43 41 37 36 38 37 38 42 45 46 49 45 42 34 48 43 40 41 44 49 53 55 55 50
47 47 49 36 38 44 43 51 42 34 36 30 25 28 32 33 32 38 31 33 38 39 32 37 40 41 35 38 38 35 34 37 35 30 34 38 42 44 49 50 54 56 52 54
49 48 39 28 25 27 32 35 37 38 35 30 19 26 18 18 16 29 19 29 37 30 33 34 37 36 36 36 31 31 30 27 30 34 38 41 41 46 51 52 56 56 55 54
45 37 32 27 23 22 23 32 29 28 30 28 29 24 25 17 17 17 19 18 22 29 32 32 22 22 26 31 29 29 28 28 38 41 42 42 45 48 51 54 58 54 52 53
37 21 22 28 30 30 30 18 17 18 19 18 20 24 27 19 20 22 24 22 24 19 23 25 25 30 31 34 37 37 35 37 39 39 44 48 53 52 51 51 48 50 51 51
15 22 17 17 24 28 27 26 26 25 21 20 19 22 24 23 24 25 25 24 24 21 23 28 28 30 32 35 40 41 35 39 40 41 44 48 47 45 45 46 47 48 50 51
11 20 25 23 24 21 22 25 25 22 23 23 22 23 23 29 31 31 29 30 31 30 27 29 29 33 35 30 29 30 31 36 38 39 41 41 40 40 43 44 46 47 49 51
17 17 19 19 21 25 25 21 22 24 27 25 25 21 25 25 27 31 36 32 31 31 28 28 27 26 32 31 30 29 31 33 33 34 34 35 38 40 42 43 44 47 50 53
28 32 32 29 33 35 33 33 31 28 28 25 21 19 23 24 23 26 30 30 29 30 28 27 21 24 32 27 27 29 28 27 27 30 33 35 38 39 40 42 45 49 54 58
39 38 39 42 37 34 28 29 34 33 27 25 22 23 22 21 21 20 23 28 32 30 27 24 28 26 25 25 25 23 24 27 28 30 33 35 36 39 41 45 50 55 59 61
30 33 37 39 33 27 24 26 30 25 22 27 25 23 22 24 21 22 21 24 20 18 19 17 17 21 18 17 20 23 25 27 29 31 32 35 37 41 46 51 55 59 60 59
30 30 30 22 14 19 19 19 18 15 15 22 22 22 20 19 18 20 21 19 16 11 10 13 15 17 19 21 24 25 26 26 28 31 32 36 41 46 51 55 58 58 55 52
21 21 15 11 13 16 14 10 6 10 11 13 19 19 16 15 14 11 9 8 7 9 12 15 17 20 21 22 23 23 25 27 29 31 36 41 45 50 54 57 56 53 48 43
13 12 13 19 16 14 10 6 10 10 10 14 9 13 15 11 9 8 8 8 9 11 14 16 17 18 19 21 23 25 26 27 30 34 40 45 48 52 55 55 51 46 41 39
8 5 16 19 18 13 7 10 8 8 12 11 14 14 12 11 9 7 8 9 11 12 13 14 16 19 21 22 24 25 27 30 34 39 43 46 51 53 53 50 44 40 38 39
6 5 12 15 14 13 12 11 12 13 12 15 13 11 8 8 7 8 9 10 10 11 13 16 19 20 21 22 24 27 31 34 38 42 46 49 51 51 48 43 39 37 39 39
1 3 6 7 9 10 10 11 11 12 12 10 9 9 7 7 8 9 9 10 12 14 17 19 20 21 22 24 28 31 35 37 41 44 47 49 49 47 43 40 38 38 39 42
4 5 5 6 8 10 11 11 13 13 12 10 8 7 8 10 9 10 12 14 15 18 20 21 21 22 24 27 31 35 38 40 43 46 47 48 47 44 40 36 36 39 43 46
11 10 10 8 8 8 12 14 14 11 9 10 12 12 11 11 11 13 14 16 19 21 21 22 23 26 28 30 33 37 39 42 44 47 48 46 44 40 36 36 40 44 47 48
14 16 16 15 13 14 15 15 14 13 13 14 13 13 13 13 14 16 18 21 22 22 22 24 27 29 31 33 35 38 40 43 46 48 47 44 41 37 37 41 45 48 48 48
11 16 20 20 19 19 19 17 16 16 16 16 16 16 17 17 18 21 22 24 24 23 25 27 30 31 33 35 36 39 42 45 47 50 47 43 41 40 42 45 48 48 49 47
Wind_Direction
248 253 257 251 241 241 248 252 251 246 252 247 248 251 258 261 264 263 265 270 270 268 268 271 271 271 271 272 259 264 261 271 276 279 292 289 289 290 289 289 288 290 288 291
263 264 271 269 255 247 264 268 270 269 269 262 250 253 258 264 264 263 267 266 266 267 269 270 271 271 270 264 257 253 261 266 271 271 288 286 286 287 286 284 284 284 286 292
263 263 264 265 270 271 272 272 270 271 274 269 265 260 260 260 263 263 262 264 261 262 260 259 261 259 261 255 254 257 270 269 260 262 276 278 276 283 282 278 274 279 287 294
267 263 268 269 266 270 271 269 268 270 272 270 270 269 265 264 262 259 259 259 260 259 256 255 265 268 261 259 263 266 269 263 258 266 275 276 280 278 274 269 274 284 292 295
271 267 271 268 270 272 273 271 272 274 272 271 269 265 264 264 262 263 267 273 273 266 262 257 264 275 274 278 267 269 269 262 259 261 275 276 273 268 268 276 282 287 293 295
269 272 271 266 266 270 271 273 275 273 284 280 273 270 270 259 265 266 264 268 276 275 278 277 272 267 262 255 252 257 257 260 262 263 264 266 268 270 272 281 287 288 292 296
270 272 274 276 273 267 261 271 270 274 277 272 273 282 258 269 266 255 256 264 264 260 259 258 247 253 242 251 253 253 257 254 256 268 265 270 272 277 281 294 293 291 293 295
271 272 277 284 276 273 269 264 269 267 275 260 272 274 270 265 267 258 259 249 250 250 254 253 252 246 241 241 249 249 250 250 248 264 258 273 279 285 293 296 294 294 294 297
268 271 278 278 273 269 270 266 265 266 273 270 259 265 275 242 278 262 260 254 248 249 247 250 248 243 239 242 248 247 250 265 275 269 271 275 279 286 292 297 297 298 296 294
266 265 271 258 249 262 274 268 264 266 277 285 264 278 283 286 285 291 273 250 237 239 236 237 250 264 270 272 277 273 273 269 272 266 262 286 291 289 291 295 295 290 291 294
260 259 262 260 253 255 263 256 249 258 262 270 286 277 286 282 276 276 284 275 273 266 267 251 264 264 266 272 275 268 261 261 264 271 275 286 284 286 290 291 288 292 295 298
255 249 262 248 252 253 254 254 257 250 259 271 282 278 269 271 268 251 247 251 261 261 261 260 264 267 269 266 260 261 266 264 269 272 272 278 281 285 286 288 292 294 298 301
248 246 250 258 265 261 260 262 262 269 271 261 273 270 264 266 259 251 239 236 255 257 265 262 264 266 263 264 267 267 268 267 269 274 276 280 283 284 287 291 295 298 300 303
278 270 257 264 263 255 257 263 272 272 275 269 273 261 265 263 259 249 243 247 249 257 249 248 264 269 265 270 274 273 273 276 277 278 280 282 285 289 293 295 299 302 304 305
263 270 271 269 276 275 261 256 256 263 270 265 263 258 260 245 250 254 246 243 245 249 250 257 260 258 266 271 274 277 274 274 277 281 286 289 291 293 296 300 303 305 307 308
267 271 272 278 279 274 266 248 248 249 259 255 257 249 255 247 266 262 260 254 256 252 247 243 251 261 271 276 272 268 273 279 284 287 289 292 295 299 304 305 306 307 308 307
277 269 273 276 269 271 256 236 231 240 247 250 249 256 264 259 268 269 259 256 243 234 232 245 272 276 268 273 274 277 281 283 286 292 294 298 304 306 308 309 309 308 307 306
275 278 279 279 251 254 222 212 219 223 244 250 260 263 266 269 254 235 231 221 216 226 257 259 256 265 271 274 275 278 284 290 293 297 302 306 309 311 310 309 308 308 307 306
266 270 256 239 221 203 193 199 236 240 231 253 261 259 252 230 213 195 189 192 203 230 246 258 263 267 271 277 282 288 292 295 299 303 307 310 312 312 311 311 310 309 308 307
297 267 216 209 199 210 213 268 217 220 260 277 241 229 216 186 187 199 215 230 244 255 260 266 272 278 283 286 289 291 294 298 303 307 311 314 315 316 315 312 311 309 307 306
332 217 189 196 213 229 259 241 245 287 280 236 198 184 190 198 209 230 251 260 265 270 276 282 287 288 288 289 290 293 299 304 307 311 315 318 320 319 315 313 310 308 308 308
14 138 189 213 232 247 240 241 284 270 216 178 184 192 207 230 248 259 263 269 274 282 290 291 290 289 290 293 296 301 304 307 311 316 319 322 322 318 315 313 309 308 309 309
212 170 171 192 218 232 236 250 238 186 187 190 207 225 240 258 265 264 266 271 281 289 294 294 294 295 296 299 302 305 307 312 316 320 324 324 320 316 314 313 311 311 312 312
224 233 233 239 250 248 218 198 200 199 201 214 236 259 269 260 254 267 276 283 289 298 300 300 301 303 303 303 305 307 310 315 319 324 327 325 317 313 312 313 314 314 313 314
233 227 225 235 254 246 214 213 212 217 226 245 256 256 248 258 269 277 282 290 296 299 301 304 305 306 306 307 308 310 315 320 323 326 330 323 314 310 311 313 313 314 315 315
249 247 243 242 243 236 225 223 224 228 242 253 248 249 257 265 273 286 290 295 302 303 304 305 306 307 308 310 312 316 319 323 326 331 330 320 311 309 311 312 313 315 315 316
290 260 251 247 247 238 221 224 229 241 252 248 247 254 263 273 282 292 296 301 302 301 303 305 305 307 310 312 315 318 322 326 330 333 327 317 310 308 309 312 314 316 316 317